User: anonymous   Login
Location: *
(37.5724°S, 58.0067°E)
Time: 16:47:38
(UTC+00:00)
Language:

Meteor 2-10 - Orbit

View from above orbital plane
View from above orbital plane
View from above satellite
View from above satellite

Ground track
Ground track

The orbit data is extracted from the following two-line orbital elements,

1 14452U 83109A   20333.51570717 +.00000047 +00000-0 +14106-4 0  9998
2 14452 081.1630 244.0695 0090444 325.2190 034.3097 14.26517773928424
Epoch (UTC): 28 November 2020 12:22:37
Eccentricity: 0.0090444
inclination: 81.1630°
perigee height: 738 km
apogee height: 868 km
right ascension of ascending node: 244.0695°
argument of perigee: 325.2190°
revolutions per day: 14.26517773
mean anomaly at epoch: 34.3097°
orbit number at epoch: 92842

The dashed part of the orbit path shows where the satellite is in the earth's shadow,  

DLR